Regional Weather Roundup
Issued by NWS

Home | Current Version | Previous Version | Text Only | Print | Product List | Glossary Off
Versions: 1 2 3 4 5 6 7 8 9 10 11 12 13 14 15 16 17 18 19 20 21 22 23 24 25 26 27 28 29 30 31 32 33 34 35 36 37 38 39 40 41 42 43 44 45 46 47 48 49

566
ASUS45 KCYS 121110
RWRWY

WYOMING REGIONAL WEATHER ROUNDUP
NATIONAL WEATHER SERVICE CHEYENNE WY
400 AM MST FRI FEB 12 2016

NOTE:  "FAIR" INDICATES FEW OR NO CLOUDS BELOW 12,000 FEET
WITH NO SIGNIFICANT WEATHER AND/OR OBSTRUCTIONS TO VISIBILITY.

WYZ001-121200-
YELLOWSTONE NATIONAL PARK

CITY           SKY/WX    TMP DP  RH WIND       PRES   REMARKS
LK YELLOWSTONE   N/A     30  27  88 CALM      30.36S
W YELLOWSTONE  NOT AVBL

$$
WYZ002>013-054>058-071-098>099-121200-
NORTHERN WYOMING

CITY           SKY/WX    TMP DP  RH WIND       PRES   REMARKS
JACKSON        MOCLDY    28  28 100 N6        30.36S WCI  22
CODY           FAIR      30  18  59 S3        30.24F
GREYBULL       CLOUDY    34  27  75 SE5       30.23F WCI  30
WORLAND        MOCLDY    32  27  81 S7        30.23F WCI  26
SHERIDAN       CLOUDY    32  25  75 CALM      30.28S
BUFFALO        CLOUDY    37  26  64 NW3       30.27S
GILLETTE       FAIR      25  23  92 W5        30.28R WCI  19
HULETT         CLOUDY    30  28  93 NW6       30.30R WCI  24
NEWCASTLE      FAIR      30  27  86 N9        30.25S WCI  22

$$
WYZ014>020-022>026-101>103-121200-
CENTRAL WYOMING

CITY           SKY/WX    TMP DP  RH WIND       PRES   REMARKS
BIG PINEY      FAIR      21  18  88 NW5       30.37S WCI  15
PINEDALE         N/A     23  21  93 CALM      30.37R
DUBOIS         DRIZZLE   34  32  93 NW20      30.26F WCI  22
LANDER         FAIR      37  25  61 SW6       30.23F WCI  32
RIVERTON       FAIR      31  24  75 CALM      30.25F
CASPER         CLOUDY    34  26  72 W6        30.26R WCI  29
DOUGLAS        MOCLDY    30  26  85 N6        30.27S WCI  24

$$
WYZ021-027>030-104>119-121200-
SOUTHERN WYOMING

CITY           SKY/WX    TMP DP  RH WIND       PRES   REMARKS
EVANSTON       FAIR      34  14  43 S6        30.38F WCI  29
FORT BRIDGER   SUNNY     32  19  59 W12       30.40F WCI  23
ROCK SPRINGS   MOCLDY    33  18  53 SW10      30.36S WCI  25
DIXON          CLOUDY    19  14  79 CALM      30.42S
RAWLINS        CLOUDY    36  22  56 SW17      30.31F WCI  26
SARATOGA       CLOUDY    34  23  64 S7        30.35S WCI  28
LARAMIE        FAIR      34  22  61 SW9       30.28S WCI  27
CHEYENNE       MOCLDY    34  25  69 S7        30.26S WCI  28
TORRINGTON     FAIR      30  25  81 NW3       30.25S
PINE BLUFFS    FAIR      28  25  86 CALM      30.28R

$$




USA.gov is the U.S. government's official web portal to all federal, state and local government web resources and services.